Location: Hains Lake
(37.8540°N, 99.8578°W)
Time: 16:36:02
(UTC+00:00)

Vanguard 1 - Pass Details

Date: 03 December 2021
Orbit: 652 x 3830 km, 34.2° (Epoch: 22 January)

Event Time Altitude Azimuth Distance (km) Brightness Sun altitude
Exits shadow 07:22:11 30° 88° (E) 4,871 13.5 -70.6°
Drops below altitude 10° 07:29:00 10° 83° (E) 5,932 14.1 -69.7°
Sets 07:32:50 0° 81° (E) 6,629 14.5 -69.2°
